Home   Weather   Chișinău   Past weeks

Flag for Moldova Past Weather in Chișinău, Moldova — Yesterday and Last 2 Weeks

Now
63 °F

Clear.


Feels Like: 63 °F
Forecast: 60 / 92 °F
Wind: 2 mph from North

Location: Chisinau International Airport

Current Time: Aug 18, 2017 at 4:31:15 am

Latest Report: Aug 18, 2017 at 3:30 am


Visibility: 10 mi

Pressure: 30.01 "Hg

Humidity: 83%

Dew Point: 57 °F

Location of ChișinăuLocation

Past Weather in Chișinău — Graph

°F

Chișinău Temperature Yesterday

Maximum temperature yesterday: 88 °F (at 1:30 pm)
Minimum temperature yesterday: 64 °F (at 2:00 am)
Average temperature yesterday: 76 °F

High & Low Weather Summary for the Past Weeks

 TemperatureHumidityPressure
High100 °F (Aug 6, 4:30 pm)100% (Aug 3, 6:30 am)30.18 "Hg (Aug 3, 6:30 am)
Low59 °F (Aug 9, 3:00 am)17% (Aug 12, 3:00 pm)29.71 "Hg (Aug 13, 4:30 pm)
Average78 °F63%29.97 "Hg
* Reported Aug 3 3:00 am — Aug 18 3:30 am, Chișinău. Weather by CustomWeather, © 2017

Note: Actual official high and low records may vary slightly from our data, if they occured in-between our weather recording intervals... More about our weather records

Advertising

Chișinău Weather History for the Previous 24 Hours

Scroll right to see more
 ConditionsComfort  
Time TempWeatherWind HumidityBarometerVisibility
3:30 am
Fri, Aug 18
63 °FClear.2 mph83%30.01 "Hg10 mi
3:00 am61 °FClear.1 mph88%30.01 "Hg10 mi
2:30 am66 °FClear.7 mph83%30.01 "Hg10 mi
2:00 am64 °FClear.3 mph83%30.01 "Hg10 mi
1:30 am68 °FPassing clouds.6 mph78%30.01 "HgN/A
1:00 am68 °FClear.5 mph73%30.01 "Hg10 mi
12:30 am66 °FPassing clouds.3 mph78%30.01 "HgN/A
12:00 am68 °FClear.No wind73%30.01 "Hg10 mi
11:30 pm
Thu, Aug 17
66 °FClear.No wind83%30.01 "Hg10 mi
11:00 pm70 °FClear.No wind73%30.01 "Hg10 mi
10:30 pm72 °FClear.2 mph65%30.01 "Hg10 mi
10:00 pm70 °FClear.No wind73%30.01 "Hg10 mi
9:30 pm75 °FClear.7 mph54%30.01 "Hg10 mi
9:00 pm81 °FClear.7 mph45%30.01 "Hg10 mi
8:30 pm81 °FClear.7 mph45%30.01 "Hg10 mi
8:00 pm82 °FPassing clouds.5 mph45%29.98 "HgN/A
7:30 pm82 °FSunny.6 mph51%29.98 "Hg10 mi
7:00 pm86 °FPassing clouds.6 mph40%29.98 "HgN/A
6:30 pm86 °FPassing clouds.6 mph40%29.98 "HgN/A
6:00 pm86 °FPassing clouds.6 mph40%29.98 "HgN/A
5:30 pm88 °FScattered clouds.7 mph38%29.98 "HgN/A
5:00 pm88 °FScattered clouds.7 mph35%29.98 "HgN/A
4:30 pm86 °FThundershowers. Scattered clouds.6 mph38%29.98 "HgN/A
4:00 pm86 °FScattered clouds.8 mph35%29.98 "HgN/A
3:30 pm84 °FThundershowers. Scattered clouds.16 mph35%30.01 "HgN/A
3:00 pm88 °FScattered clouds.8 mph35%30.01 "HgN/A
2:30 pm88 °FScattered clouds.9 mph35%30.01 "HgN/A
2:00 pm88 °FScattered clouds.8 mph38%30.01 "HgN/A
1:30 pm88 °FPassing clouds.9 mph40%30.01 "HgN/A
1:00 pm86 °FPassing clouds.9 mph46%30.01 "HgN/A
12:30 pm84 °FPassing clouds.9 mph45%30.04 "HgN/A
12:00 pm82 °FPassing clouds.9 mph51%30.04 "HgN/A
11:30 am81 °FPassing clouds.9 mph54%30.04 "HgN/A
11:00 am79 °FPassing clouds.10 mph58%30.04 "HgN/A
10:30 am77 °FScattered clouds.7 mph61%30.04 "HgN/A
10:00 am73 °FSunny.8 mph65%30.04 "Hg10 mi
9:30 am73 °FPassing clouds.9 mph65%30.04 "HgN/A
9:00 am73 °FSunny.10 mph65%30.04 "Hg10 mi
8:30 am72 °FSunny.10 mph69%30.04 "Hg10 mi
8:00 am68 °FSunny.8 mph78%30.04 "Hg10 mi
7:30 am68 °FSunny.8 mph73%30.01 "Hg10 mi
7:00 am66 °FSunny.7 mph78%30.01 "Hg10 mi
6:30 am66 °FSunny.7 mph78%30.01 "Hg10 mi
6:00 am68 °FClear.8 mph73%30.01 "Hg10 mi
5:30 am66 °FClear.7 mph78%30.01 "Hg10 mi
5:00 am64 °FPassing clouds.5 mph83%30.01 "HgN/A
4:30 am68 °FClear.7 mph73%30.01 "Hg10 mi
4:00 am64 °FClear.2 mph83%30.01 "Hg10 mi
Weather by CustomWeather, © 2017

See weather overviewHow to use our weather pages